[[{"header":{"parameterUnit":"m.s-1","parameterCategory":1,"la1":30.2991,"la2":30.254,"lo1":-89.0895,"lo2":-89.0444,"dy":0.0017,"dx":0.0017,"nx":28,"ny":28,"refTime":"2025-02-09T03:00:00:Z","depth":0,"parameterNumber":2,"parameterNumberName":"U-component_of_WINDS"},"data":[0,0,0,0,0,0,0,0,0,0,0,0,0,0,0,0,0,0,0,0,0,0,0,0,0,0,0,0,0,0,0,0,0,0,0,0,0,0,0,0,0,0,0,0,0,0,0,0,0,0,0,0,0,0,0,0,0,0,-0.2671,-0.2671,0,-0.2685,-0.2685,-0.2685,-0.2697,-0.2697,-0.2697,-0.2697,-0.271,-0.271,-0.271,0,0,0,0,0,0,0,0,0,0,0,0,0,-0.2654,-0.2655,-0.2671,-0.2671,-0.2672,-0.2685,-0.2685,-0.2685,-0.2697,-0.2697,-0.2697,-0.2697,-0.271,-0.271,-0.271,0,0,0,0,0,0,0,0,0,0,0,0,0,-0.2664,-0.2655,-0.2671,-0.2679,-0.268,-0.2685,-0.2685,-0.2685,-0.2697,-0.2697,-0.2697,-0.2697,-0.271,-0.271,-0.271,-0.2708,0,0,-0.2711,-0.2712,0,0,0,0,0,0,0,0,-0.2663,-0.2665,-0.2678,-0.2678,-0.2679,-0.2689,-0.2684,-0.2693,-0.2697,-0.269,-0.2697,-0.2697,-0.2703,-0.2704,-0.2706,-0.2709,-0.271,-0.2711,-0.2712,-0.2712,-0.2712,0,0,0,0,0,0,0,-0.2663,-0.2664,-0.2676,-0.2678,-0.2679,-0.2681,-0.2683,-0.2685,-0.2695,-0.2691,-0.2692,-0.2693,-0.2703,-0.2705,-0.2706,-0.271,-0.2711,-0.2712,-0.2712,-0.2712,-0.2711,-0.2711,0,0,0,0,0,0,-0.2661,-0.2664,-0.2676,-0.2677,-0.2672,-0.2681,-0.2683,-0.2686,-0.2695,-0.2697,-0.2693,-0.2694,-0.2705,-0.2706,-0.2707,-0.2704,-0.2712,-0.2712,-0.2712,-0.2712,-0.2711,-0.2711,0,0,0,0,0,0,-0.2661,-0.2662,-0.2676,-0.267,-0.2672,-0.2682,-0.2684,-0.2686,-0.2688,-0.2697,-0.2699,-0.2693,-0.2705,-0.2706,-0.2708,-0.2705,-0.2712,-0.2713,-0.2712,-0.2712,-0.2711,-0.27,0,0,0,0,0,0,-0.266,-0.2662,-0.2661,-0.267,-0.2673,-0.2677,-0.2684,-0.2686,-0.2689,-0.269,-0.2698,-0.2699,-0.2705,-0.2707,-0.2708,-0.2706,-0.2713,-0.2712,-0.2712,-0.2711,-0.2701,-0.27,-0.2698,0,0,0,0,0,-0.2659,-0.2658,-0.2661,-0.2663,-0.2672,-0.2677,-0.2678,-0.2685,-0.2689,-0.2688,-0.2694,-0.2699,-0.2705,-0.2707,-0.2708,-0.2706,-0.2712,-0.2712,-0.2711,-0.2701,-0.27,-0.2698,0,0,0,0,0,0,-0.2648,-0.2659,-0.2663,-0.2664,-0.2669,-0.2679,-0.2678,-0.2683,-0.2687,-0.2688,-0.2697,-0.2698,-0.2699,-0.2703,-0.2705,-0.2704,-0.271,-0.2709,-0.2702,-0.27,-0.2699,-0.2698,-0.2713,0,0,0,0,0,-0.2646,-0.2649,-0.2658,-0.2658,-0.266,-0.2669,-0.2671,-0.2676,-0.2682,-0.2684,-0.2689,-0.2694,-0.2697,-0.2699,-0.2702,-0.2702,-0.2703,-0.27,-0.2699,-0.2698,-0.2698,-0.2697,-0.2696,-0.271,-0.271,-0.271,0,0,-0.2641,-0.2647,-0.2648,-0.2656,-0.266,-0.2663,-0.267,-0.2673,-0.2674,-0.2684,-0.2686,-0.269,-0.2696,-0.2696,-0.2697,-0.2699,-0.2694,-0.2698,-0.2697,-0.2697,-0.2696,-0.2695,-0.2694,-0.2709,-0.2709,-0.2709,0,0,-0.2633,-0.2638,-0.2639,-0.2643,-0.265,-0.2656,-0.2656,-0.2664,-0.2667,-0.2669,-0.2676,-0.2678,-0.2683,-0.2687,-0.269,-0.2683,-0.2688,-0.2684,-0.2677,-0.2676,-0.2675,-0.2674,-0.2671,-0.267,-0.2683,-0.2683,-0.2683,0,-0.2626,-0.263,-0.2638,-0.264,-0.2643,-0.2652,-0.2652,-0.2656,-0.2663,-0.2665,-0.2668,-0.2674,-0.2679,-0.268,-0.2678,-0.268,-0.268,-0.2683,-0.2675,-0.2674,-0.2673,-0.267,-0.2669,-0.2683,-0.2683,-0.2683,-0.2683,0,-0.2621,-0.2623,-0.2623,-0.263,-0.2633,-0.2633,-0.2641,-0.2643,-0.2648,-0.2653,-0.2655,-0.2661,-0.2665,-0.2666,-0.2671,-0.2667,-0.2669,-0.2673,-0.2679,-0.2671,-0.2669,-0.2668,-0.2682,-0.2682,-0.2682,-0.2682,0,0,-0.2606,-0.2617,-0.2617,-0.262,-0.2628,-0.263,-0.2631,-0.2636,-0.2637,-0.2642,-0.2642,-0.2646,-0.2651,-0.2653,-0.2659,-0.2658,-0.2652,-0.2663,-0.2663,-0.266,-0.2648,-0.2643,-0.2642,-0.2655,-0.2655,-0.2655,-0.2647,0,-0.2599,-0.2601,-0.2609,-0.2609,-0.2611,-0.262,-0.2621,-0.2625,-0.263,-0.2632,-0.2637,-0.264,-0.2646,-0.2647,-0.2647,-0.2652,-0.2649,-0.2653,-0.2655,-0.2655,-0.2653,-0.2641,-0.2637,-0.2629,-0.2646,-0.2646,-0.2646,0,-0.2591,-0.2595,-0.2596,-0.2603,-0.2604,-0.2605,-0.2609,-0.2612,-0.2617,-0.2621,-0.2624,-0.263,-0.2631,-0.2636,-0.2637,-0.264,-0.2641,-0.2644,-0.2644,-0.2644,-0.2649,-0.264,-0.2627,-0.2625,-0.2644,-0.2644,-0.2644,0,-0.2579,-0.2585,-0.2586,-0.2588,-0.2597,-0.2597,-0.2601,-0.2607,-0.2609,-0.2613,-0.2614,-0.2618,-0.262,-0.2623,-0.2629,-0.2633,-0.263,-0.2636,-0.2632,-0.2632,-0.263,-0.263,-0.2616,-0.2632,-0.2632,-0.2632,-0.2632,0,-0.257,-0.257,-0.2581,-0.2581,-0.2581,-0.2589,-0.2589,-0.2593,-0.2598,-0.2599,-0.2607,-0.2608,-0.2617,-0.2618,-0.2624,-0.2624,-0.2625,-0.2627,-0.2628,-0.2626,-0.2625,-0.2626,-0.2627,-0.2632,-0.2632,-0.2632,-0.2632,0,-0.2557,-0.2564,-0.2565,-0.2574,-0.2576,-0.2575,-0.2582,-0.2583,-0.2588,-0.2589,-0.259,-0.2598,-0.26,-0.2607,-0.2612,-0.2615,-0.2613,-0.2616,-0.2611,-0.2612,-0.2607,-0.2607,-0.2593,-0.2591,-0.2609,-0.2609,-0.2609,0,-0.255,-0.255,-0.2558,-0.256,-0.2563,-0.2565,-0.2568,-0.2576,-0.2578,-0.2584,-0.2583,-0.2586,-0.2589,-0.2592,-0.2598,-0.2601,-0.2604,-0.2599,-0.2604,-0.2602,-0.2603,-0.2602,-0.2602,-0.2597,-0.2597,-0.2597,-0.2597,0,-0.2537,-0.2541,-0.2544,-0.2548,-0.255,-0.2554,-0.2558,-0.2558,-0.2567,-0.2569,-0.2572,-0.2574,-0.2578,-0.2581,-0.2585,-0.2588,-0.2593,-0.2595,-0.2594,-0.2591,-0.2588,-0.2589,-0.2607,-0.2595,-0.2595,-0.2595,-0.2595,-0.2595,-0.2527,-0.2527,-0.2533,-0.2535,-0.2539,-0.2543,-0.2543,-0.2549,-0.2551,-0.2555,-0.256,-0.2562,-0.2567,-0.2573,-0.2576,-0.2577,-0.258,-0.2579,-0.2578,-0.2578,-0.2576,-0.2589,-0.2578,-0.2578,-0.2578,-0.2578,-0.2578,0,-0.2514,-0.2518,-0.2521,-0.2526,-0.2528,-0.2533,-0.2538,-0.2539,-0.2541,-0.2545,-0.2547,-0.255,-0.2553,-0.2559,-0.2562,-0.2562,-0.2564,-0.2562,-0.2562,-0.2562,-0.2574,-0.2574,-0.256,-0.256,-0.256,-0.256,-0.256,-0.256,-0.2507,-0.2508,-0.2512,-0.2514,-0.2518,-0.252,-0.2522,-0.2525,-0.2528,-0.2531,-0.2533,-0.2537,-0.2542,-0.2545,-0.2548,-0.255,-0.255,-0.2547,-0.2549,-0.256,-0.2562,-0.2563,-0.2563,-0.2547,-0.2547,-0.2537,-0.2537,-0.2537]},{"header":{"parameterUnit":"m.s-1","parameterCategory":1,"la1":30.2991,"la2":30.254,"lo1":-89.0895,"lo2":-89.0444,"dy":0.0017,"dx":0.0017,"nx":28,"ny":28,"refTime":"2025-02-09T03:00:00:Z","depth":0,"parameterNumber":3,"parameterNumberName":"V-component_of_WINDS"},"data":[0,0,0,0,0,0,0,0,0,0,0,0,0,0,0,0,0,0,0,0,0,0,0,0,0,0,0,0,0,0,0,0,0,0,0,0,0,0,0,0,0,0,0,0,0,0,0,0,0,0,0,0,0,0,0,0,0,0,4.4128,4.4129,0,4.4156,4.4156,4.4156,4.4126,4.4125,4.4124,4.4123,4.4148,4.415,4.4151,0,0,0,0,0,0,0,0,0,0,0,0,0,4.4048,4.4049,4.4128,4.4129,4.4129,4.4156,4.4156,4.4156,4.4127,4.4125,4.4124,4.4122,4.4147,4.4149,4.4151,0,0,0,0,0,0,0,0,0,0,0,0,0,4.408,4.405,4.4128,4.4117,4.4117,4.4156,4.4156,4.4156,4.4127,4.4125,4.4123,4.4122,4.4147,4.4149,4.4152,4.4202,0,0,4.416,4.4161,0,0,0,0,0,0,0,0,4.4078,4.4083,4.4119,4.4118,4.4117,4.4136,4.4137,4.4172,4.4127,4.4123,4.4123,4.4121,4.4145,4.4148,4.4156,4.4203,4.4204,4.416,4.4161,4.4163,4.4163,0,0,0,0,0,0,0,4.4076,4.4081,4.4139,4.4119,4.4119,4.411,4.4113,4.4143,4.4143,4.4123,4.4121,4.4125,4.4144,4.4154,4.4157,4.4204,4.416,4.4162,4.4164,4.4165,4.4295,4.4297,0,0,0,0,0,0,4.4075,4.408,4.4138,4.414,4.4093,4.4113,4.4116,4.4132,4.4143,4.4143,4.4126,4.4123,4.415,4.4154,4.4158,4.4218,4.4163,4.4165,4.4166,4.4293,4.4295,4.4297,0,0,0,0,0,0,4.4073,4.4081,4.4137,4.4109,4.4116,4.4116,4.4134,4.4133,4.4143,4.4145,4.4145,4.4136,4.4149,4.4154,4.4192,4.4219,4.4166,4.4168,4.4291,4.4294,4.4296,4.434,0,0,0,0,0,0,4.4071,4.408,4.41,4.411,4.4117,4.4171,4.4136,4.4135,4.4148,4.4144,4.4154,4.4154,4.4148,4.4188,4.4194,4.4221,4.417,4.4288,4.4292,4.4295,4.4336,4.4344,4.435,0,0,0,0,0,4.4069,4.411,4.4101,4.4108,4.4142,4.4173,4.4177,4.417,4.415,4.4169,4.4171,4.4154,4.4215,4.4192,4.4199,4.4227,4.4286,4.4291,4.4295,4.4333,4.4342,4.435,0,0,0,0,0,0,4.4101,4.4111,4.4101,4.4147,4.416,4.4168,4.4192,4.418,4.4198,4.4194,4.4183,4.4186,4.4226,4.423,4.4205,4.4277,4.4247,4.4253,4.4273,4.4282,4.429,4.4288,4.4173,0,0,0,0,0,4.4114,4.4139,4.4146,4.4186,4.4193,4.4192,4.4205,4.4198,4.4211,4.4215,4.422,4.4231,4.4253,4.4268,4.4288,4.4336,4.4338,4.4359,4.4366,4.4372,4.4377,4.4405,4.4415,4.4311,4.4311,4.4311,0,0,4.414,4.4148,4.4165,4.4193,4.4202,4.4228,4.4196,4.4225,4.4244,4.4219,4.4256,4.426,4.4272,4.4316,4.4335,4.432,4.4406,4.4377,4.4382,4.4384,4.441,4.442,4.4429,4.4314,4.4314,4.4313,0,0,4.4202,4.421,4.4245,4.4256,4.427,4.4269,4.4278,4.4288,4.4291,4.4327,4.431,4.4332,4.4369,4.438,4.4389,4.4456,4.4442,4.4463,4.4501,4.4528,4.4536,4.4544,4.4569,4.4578,4.4468,4.4468,4.4468,0,4.4232,4.4272,4.4265,4.4296,4.4309,4.4289,4.4324,4.4334,4.4354,4.4363,4.4346,4.4394,4.4401,4.4447,4.4464,4.4472,4.4482,4.4462,4.4536,4.4543,4.455,4.4574,4.4583,4.4471,4.4471,4.447,4.447,0,4.431,4.4338,4.4364,4.4386,4.4402,4.4435,4.4432,4.4448,4.4441,4.4442,4.448,4.4487,4.4509,4.4519,4.4511,4.4566,4.4556,4.4538,4.4508,4.4562,4.4585,4.4594,4.4475,4.4474,4.4473,4.4472,0,0,4.4393,4.4412,4.4422,4.4432,4.4447,4.4468,4.45,4.4523,4.4539,4.4553,4.458,4.4612,4.4596,4.4608,4.46,4.4624,4.4679,4.4603,4.4603,4.4618,4.474,4.4756,4.4767,4.4669,4.467,4.4672,4.474,0,4.4457,4.4514,4.4509,4.4563,4.4589,4.4571,4.4599,4.4611,4.4613,4.4635,4.4636,4.466,4.4636,4.4643,4.4665,4.4667,4.4703,4.4662,4.4694,4.4695,4.4694,4.4778,4.4794,4.4858,4.4749,4.475,4.4751,0,4.4539,4.4559,4.4616,4.4629,4.464,4.4665,4.4687,4.4708,4.4721,4.4721,4.4734,4.4723,4.4755,4.4724,4.4768,4.4741,4.4753,4.4756,4.4758,4.4763,4.4728,4.4786,4.4878,4.4889,4.4765,4.4764,4.4763,0,4.4597,4.4637,4.4677,4.4686,4.4702,4.472,4.4727,4.4739,4.4754,4.4772,4.4782,4.4802,4.4814,4.4831,4.4826,4.4803,4.4872,4.4839,4.4873,4.4873,4.489,4.4889,4.4987,4.4895,4.4895,4.4894,4.4894,0,4.4669,4.4706,4.4704,4.4728,4.4769,4.4762,4.4801,4.4806,4.4817,4.4842,4.4826,4.485,4.4841,4.4864,4.486,4.4899,4.4904,4.4905,4.4903,4.4907,4.4907,4.4916,4.4913,4.4897,4.4896,4.4896,4.4895,0,4.4741,4.4741,4.4784,4.4796,4.4799,4.4829,4.4838,4.4862,4.4862,4.4895,4.4901,4.4902,4.4929,4.4925,4.4954,4.4952,4.5,4.4992,4.4997,4.4996,4.503,4.5028,4.5139,4.5154,4.505,4.5051,4.5052,0,4.4788,4.4816,4.4832,4.4848,4.4858,4.4884,4.4899,4.4893,4.491,4.4928,4.4949,4.4975,4.4995,4.5038,4.5041,4.5064,4.5058,4.5095,4.5061,4.5064,4.506,4.506,4.5063,4.5102,4.5103,4.5104,4.5105,0,4.4873,4.4872,4.4896,4.492,4.494,4.4958,4.4974,4.4988,4.4984,4.5003,4.5031,4.5047,4.5078,4.5104,4.5125,4.5131,4.5118,4.5116,4.5125,4.513,4.5132,4.5134,4.5017,4.5114,4.5113,4.5112,4.5112,4.5111,4.4936,4.496,4.4976,4.5003,4.5015,4.5031,4.5055,4.5059,4.5083,4.5108,4.5103,4.5135,4.5148,4.5176,4.5184,4.5209,4.5195,4.5208,4.5212,4.5216,4.5221,4.5127,4.5212,4.5212,4.5212,4.5212,4.5211,0,4.5022,4.5031,4.5056,4.5081,4.5102,4.5089,4.5106,4.5125,4.5154,4.5168,4.5189,4.5222,4.5247,4.5252,4.5276,4.5295,4.529,4.5302,4.5301,4.5303,4.523,4.5221,4.5306,4.5306,4.5306,4.5306,4.5306,4.5306,4.5069,4.5111,4.5112,4.516,4.5168,4.5201,4.5212,4.5227,4.5239,4.5277,4.5298,4.5302,4.5312,4.5337,4.536,4.5361,4.5371,4.5386,4.5385,4.5317,4.5308,4.5299,4.529,4.5388,4.5388,4.5456,4.5456,4.5457]}]]